Regional Weather Roundup
Issued by NWS

Home | Current Version | Previous Version | Text Only | Print | Product List | Glossary On
Versions: 1 2 3 4 5 6 7 8 9 10 11 12 13 14 15 16 17 18 19 20 21 22 23 24 25 26 27 28 29 30 31 32 33 34 35 36 37 38 39 40 41 42 43 44 45 46 47 48 49 50
000
ASUS43 KMKX 271021
RWRWI

WISCONSIN REGIONAL WEATHER ROUNDUP
NATIONAL WEATHER SERVICE MILWAUKEE/SULLIVAN WI
500 AM CDT SAT MAY 27 2017

NOTE: "FAIR" INDICATES FEW OR NO CLOUDS BELOW 12,000 FEET WITH NO
SIGNIFICANT WEATHER AND/OR OBSTRUCTIONS TO VISIBILITY.

WIZ001-002-006>008-014>016-023>028-271100-
NORTHWEST WISCONSIN

CITY           SKY/WX    TMP DP  RH WIND       PRES   REMARKS
SUPERIOR ARPT  NOT AVBL
ASHLAND        CLEAR     53  52  96 SW7       29.81R
HAYWARD        FOG       47  45  93 CALM      29.84R VSB 1/4
SIREN          CLEAR     48  47  95 CALM      29.85S FOG
CUMBERLAND     CLEAR     46  46 100 SW3       29.86S
RICE LAKE      CLEAR     51  50  98 CALM      29.87S
CHETEK         FOG       50  50 100 CALM      29.86R VSB 1/2
LADYSMITH      FOG       51  50  97 CALM      29.86R VSB 1/4
EAU CLAIRE     CLEAR     53  53 100 SW6       29.85R
MENOMONIE      CLEAR     52  49  91 CALM      29.86S
NEW RICHMOND   CLEAR     49  48  95 CALM      29.86F
OSCEOLA        CLEAR     46  46 100 CALM      29.89S
$$

WIZ003>005-009-010-017-018-271100-
NORTH CENTRAL WISCONSIN

CITY           SKY/WX    TMP DP  RH WIND       PRES   REMARKS
MANITOWISH WTR MOCLDY    54  54 100 SW3       29.84R
ARBOR VITAE    PTCLDY    57  55  95 S5        29.84R
WOODRUFF       PTCLDY    57  55  95 S5        29.84R
RHINELANDER    CLOUDY    57  55  93 SW7       29.86R
EAGLE RIVER    CLOUDY    54  54 100 CALM      29.85S
LAND O LAKES   CLOUDY    55  54  95 CALM      29.86R
PHILLIPS       CLEAR     53  53 100 CALM      29.84R FOG
TOMAHAWK       PTCLDY    53  51  96 CALM      29.85S FOG
MEDFORD        PTCLDY    52  51  97 S5        29.86R
MERRILL        FOG       53  53 100 CALM      29.86S VSB 1/2
$$

WIZ029-030-035-036-043>047-271100-
CENTRAL WISCONSIN

CITY           SKY/WX    TMP DP  RH WIND       PRES   REMARKS
WAUSAU         CLOUDY    52  52 100 SE3       29.85S
MOSINEE        CLOUDY    52  52 100 CALM      29.88S FOG
MARSHFIELD     CLEAR     53  51  93 CALM      29.85S
STEVENS POINT  PTCLDY    50  50 100 CALM      29.88R FOG
WAUPACA        FOG       52  51  97 CALM      29.89R VSB 1
WAUTOMA        CLEAR     47  46  97 CALM      29.89S
WISC RAPIDS    CLEAR     53  52  96 S3        29.88R FOG
CAMP DOUGLAS   FOG       50  50 100 S5        29.88R VSB 1
$$

WIZ011>013-019>022-031-037>040-048>050-271100-
NORTHEAST WISCONSIN

CITY           SKY/WX    TMP DP  RH WIND       PRES   REMARKS
ANTIGO         CLOUDY    53  53 100 S3        29.87S FOG
SHAWANO        CLEAR     53  51  95 CALM      29.88S FOG
OCONTO         CLEAR     47  46  97 CALM      29.86S
STURGEON BAY   CLEAR     48  47  96 CALM      29.88S
GREEN BAY      CLEAR     51  51 100 CALM      29.88R FOG
MANITOWOC      FOG       46  45  93 CALM      29.89R VSB 1/2
APPLETON       CLOUDY    50  50 100 W3        29.87S
CLINTONVILLE   CLOUDY    50  48  93 CALM      29.88R FOG
OSHKOSH        CLEAR     50  48  93 CALM      29.88R
$$

WIZ032>034-041-042-053>061-271100-
SOUTHWEST WISCONSIN

CITY           SKY/WX    TMP DP  RH WIND       PRES   REMARKS
LA CROSSE      CLEAR     59  57  93 S7        29.87R
SPARTA         CLEAR     47  47 100 CALM      29.88S
VIROQUA        CLOUDY    56  56 100 N5        29.90R
BOSCOBEL       FOG       52  52 100 SW3       29.90R VSB 1/2
PRAIRIE DU CHI FOG       55  54  97 CALM      29.89S VSB 1/4
PLATTEVILLE    CLEAR     52  52 100 CALM      29.90R
$$

WIZ056-057-062-063-064-067-068-271100-
SOUTH CENTRAL WISCONSIN

CITY           SKY/WX    TMP DP  RH WIND       PRES   REMARKS
REEDSBURG      CLEAR     49  49 100 CALM      29.89R FOG
BARABOO/DELLS  FOG       48  47  96 S3        29.89R VSB 1
LONE ROCK      FOG       52  51  97 CALM      29.90R VSB<1/4
MINERAL POINT  FOG       50  50 100 CALM      29.90R VSB 1/2
MADISON        FOG       47  47 100 CALM      29.89R VSB 1/4
MIDDLETON      CLOUDY    47  47 100 CALM      29.89S VSB 1/4
WATERTOWN      PTCLDY    47  47 100 CALM      29.88S FOG
MONROE         FOG       50  50 100 NE3       29.88S VSB 1/4
JANESVILLE     FOG       48  48 100 CALM      29.88R VSB 1/2
$$

WIZ051-052-058>065-066-070>072-271100-
SOUTHEAST WISCONSIN

CITY           SKY/WX    TMP DP  RH WIND       PRES   REMARKS
MILWAUKEE      MOCLDY    54  53  97 CALM      29.89R
WAUKESHA       FOG       46  46 100 CALM      29.90S VSB 1/4
MILWAUKEE/TIMM FOG       52  50  93 CALM      29.89S VSB 1/2
RACINE         MOCLDY    51  49  92 CALM      29.90S
KENOSHA        PTCLDY    50  48  93 CALM      29.88S FOG
FOND DU LAC    CLEAR     49  46  90 CALM      29.89R FOG
SHEBOYGAN      FOG       48  48 100 CALM      29.88S VSB 1/4
WEST BEND      CLEAR     46  46 100 CALM      29.88F FOG
JUNEAU         FOG       49  49  98 CALM      29.90R VSB 1/4
$$

LSZ147-162-271100-
LAKE SUPERIOR

STATION/POSITION TIME  TEMP    WIND        PRES    WAVE
                       AIR SEA DIR/SP/G            HT/PER
                 (UTC) (F)     (DEG/KT/KT) (MB)    (FT/S)
W MID LAKE BUOY  0950   43 37  240/  8/  8 1008.8S   0
DEVILS ISLAND    1000   44     240/ 11/ 12 1009.6R
PORT WING        0930   43     140/  3/  4 1009.5S
SAXON HARBOR     0940   56     200/  3/  6 1009.1R
$$

LMZ867-665-643>646-271100-
LAKE MICHIGAN

STATION/POSITION TIME  TEMP    WIND        PRES    WAVE
                       AIR SEA DIR/SP/G            HT/PER
                 (UTC) (F)     (DEG/KT/KT) (MB)    (FT/S)
CHAMBERS ISLAND  0940   53     180/  3/  5 1011.2S
N MID LAKE BUOY  0950   44 42  170/  4/  6 1012.7S   0
NORTHPORT PIER   0940   49     160/  4/  5 1011.5S
SISTER BAY       0936   52     160/ 11/ 13   N/A
ALGOMA LAKESHORE 0931             CALM       N/A
KEWAUNEE LAKESHO 0954   48     140/  3/  4 1011.7R
SHEBOYGAN LAKESH 1000   52     190/  3/  3 1011.9R
PORT WASHINGTON  0940   49      CALM  /  2 1012.9S
ATWATER BUOY     0909   47     200/  2/  2 1012.0R
MILWAUKEE LAKESH 1000   52     260/  2/  2   N/A
S MID LAKE BUOY  0950   47 46  350/  6/  8 1012.1R   0
KENOSHA   LAKESH 1000   52        CALM     1012.2
$$

TC  - TEMPERATURE IN CELSIUS
VSB - VISIBILITY IN STATUTE MILES
WCI - WIND CHILL INDEX
HX  - HEAT INDEX





USA.gov is the U.S. government's official web portal to all federal, state and local government web resources and services.